OBJECT_NAME,OBJECT_ID,EPOCH,MEAN_MOTION,ECCENTRICITY,INCLINATION,RA_OF_ASC_NODE,ARG_OF_PERICENTER,MEAN_ANOMALY,EPHEMERIS_TYPE,CLASSIFICATION_TYPE,NORAD_CAT_ID,ELEMENT_SET_NO,REV_AT_EPOCH,BSTAR,MEAN_MOTION_DOT,MEAN_MOTION_DDOT GLOBALSTAR M069,2007-020C,2026-09-12T06:29:13.710048,12.23474554,.00013313,52.0063,5.6448,342.3395,38.1634,0,U,31573,999,88946,.40751633E-3,-.48E-6,0 GLOBALSTAR M072,2007-020D,2026-09-12T02:56:04.426080,11.91660093,.00013131,51.9908,228.8003,104.6450,337.1524,0,U,31574,999,88534,-.22394839E-3,-.1E-5,0 GLOBALSTAR M066,2007-048C,2026-09-12T04:26:50.337312,12.30390665,.00041976,51.9581,168.1654,222.7021,302.7550,0,U,32265,999,87093,-.34178825E-3,-.135E-5,0 GLOBALSTAR M079,2010-054A,2026-09-12T06:11:03.652224,12.62267372,.0000357,52.0028,203.6144,98.1127,49.2003,0,U,37188,999,73354,-.26698686E-4,-.109E-5,0 GLOBALSTAR M074,2010-054B,2026-09-12T06:54:37.403424,12.62263030,.00003887,52.0001,202.7753,51.4818,112.4320,0,U,37189,999,73415,-.45423934E-4,-.112E-5,0 GLOBALSTAR M076,2010-054C,2026-09-12T01:24:10.840320,12.62263557,.00001708,52.0017,203.6848,72.2465,8.4157,0,U,37190,999,73384,-.56537692E-4,-.114E-5,0 GLOBALSTAR M077,2010-054D,2026-09-12T04:24:09.679104,11.67548066,.0002496,51.9982,318.4890,340.7271,53.2126,0,U,37191,999,73130,.24086682E-3,-.65E-6,0 GLOBALSTAR M075,2010-054E,2026-09-12T03:36:02.801088,12.62260547,.00004156,51.9930,245.4117,73.3122,4.7175,0,U,37192,999,73292,-.51887466E-4,-.113E-5,0 GLOBALSTAR M073,2010-054F,2026-09-12T06:02:07.412352,12.62267872,.00004644,52.0052,159.2690,85.9828,91.9481,0,U,37193,999,73492,.85904237E-4,-.88E-6,0 GLOBALSTAR M083,2011-033A,2026-09-12T08:12:59.766624,12.62259051,.00006357,51.9845,107.1030,101.1959,69.6724,0,U,37739,999,70395,.16910783E-3,-.73E-6,0 GLOBALSTAR M088,2011-033B,2026-09-12T06:45:31.210272,12.62270190,.00006684,52.0240,13.9227,98.0793,277.1516,0,U,37740,999,69949,-.20585271E-4,-.107E-5,0 GLOBALSTAR M091,2011-033C,2026-09-12T05:13:47.429184,12.62264683,.00006691,52.0019,336.9576,113.0878,272.2564,0,U,37741,999,70027,.61688429E-4,-.93E-6,0 GLOBALSTAR M085,2011-033D,2026-09-12T01:03:23.677920,12.62265259,.00005141,52.0125,288.8564,117.8018,256.8833,0,U,37742,999,70076,.11503948E-3,-.83E-6,0 GLOBALSTAR M081,2011-033E,2026-09-12T03:41:29.397408,12.62266214,.00003141,51.9956,290.8586,121.5132,272.5790,0,U,37743,999,70092,.12518394E-3,-.81E-6,0 GLOBALSTAR M089,2011-033F,2026-09-12T06:25:32.207232,12.62263547,.0000335,51.9912,244.6523,25.3911,347.7024,0,U,37744,999,70178,-.2359388E-5,-.104E-5,0 GLOBALSTAR M084,2011-080A,2026-09-12T07:35:28.527360,12.62264137,.00005045,51.9995,112.0301,67.4623,106.5132,0,U,38040,999,67976,.14317667E-3,-.78E-6,0 GLOBALSTAR M080,2011-080B,2026-09-11T22:28:43.637952,12.62258724,.0001166,52.0046,114.9380,84.6679,291.0015,0,U,38041,999,67984,.18312E-3,-.71E-6,0 GLOBALSTAR M082,2011-080C,2026-09-12T05:21:47.177280,12.62262838,.00009688,52.0072,69.5696,101.0187,70.7748,0,U,38042,999,68058,.1965059E-5,-.103E-5,0 GLOBALSTAR M092,2011-080D,2026-09-12T04:41:31.281216,12.62265678,.00005959,52.0049,160.0580,55.0907,108.9507,0,U,38043,999,67903,.68903854E-4,-.91E-6,0 GLOBALSTAR M090,2011-080E,2026-09-12T06:00:08.977824,12.62268219,.00009001,52.0121,63.4719,108.9082,62.9770,0,U,38044,999,68070,-.51505947E-4,-.113E-5,0 GLOBALSTAR M086,2011-080F,2026-09-12T04:34:27.008832,12.62289058,.00006204,51.9895,63.4386,205.1348,324.2621,0,U,38045,999,68064,-.1983175E-5,-.104E-5,0 GLOBALSTAR M097,2013-005A,2026-09-12T06:21:49.172544,12.62271209,.00006127,52.0073,338.2611,119.3523,240.7405,0,U,39072,999,62790,.1183788E-5,-.104E-5,0 GLOBALSTAR M093,2013-005B,2026-09-12T05:43:36.682464,12.62267047,.00006766,52.0126,331.7251,136.2173,223.8748,0,U,39073,999,62785,.10329779E-3,-.85E-6,0 GLOBALSTAR M094,2013-005C,2026-09-12T05:43:29.713440,12.62264794,.00003332,51.9938,245.7553,113.7435,246.3466,0,U,39074,999,62946,-.82797575E-4,-.119E-5,0 GLOBALSTAR M096,2013-005D,2026-09-12T02:14:35.988576,12.62264437,.00005539,52.0077,295.0667,115.5610,244.5314,0,U,39075,999,62836,.12005102E-3,-.82E-6,0 GLOBALSTAR M078,2013-005E,2026-09-12T07:18:32.388192,12.62259844,.00015544,51.9901,18.3139,99.2450,260.8592,0,U,39076,999,62701,-.18757401E-3,-.137E-5,0 GLOBALSTAR M095,2013-005F,2026-09-12T07:56:46.626144,12.62264461,.00010667,52.0104,15.9585,113.9942,246.1037,0,U,39077,999,62687,-.40241461E-4,-.111E-5,0 GLOBALSTAR M087,2022-064A,2026-09-12T02:33:35.987328,12.62262876,.00007127,51.9988,157.8325,88.8940,271.2009,0,U,52888,999,20211,.15481808E-3,-.76E-6,0 GLOBALSTAR M098,2026-185A,2026-09-11T22:42:47.629440,14.63730854,.00098017,51.9955,122.3662,319.9135,40.1098,0,U,100325,999,394,.77050016E-4,.21E-5,0 GLOBALSTAR M102,2026-185B,2026-09-12T00:20:14.744256,14.63765269,.00096131,51.9959,122.0715,320.6079,39.4177,0,U,100326,999,394,.78403689E-4,.218E-5,0 GLOBALSTAR M099,2026-185C,2026-09-12T00:19:12.563904,14.63798596,.00095109,51.9951,122.0619,320.3452,39.6809,0,U,100327,999,395,.74796107E-4,.199E-5,0 GLOBALSTAR M104,2026-185D,2026-09-11T10:38:05.932608,14.48491082,.00091535,51.9883,124.9635,327.5937,32.4450,0,U,100328,999,385,.5047239E-4,.19E-6,0 GLOBALSTAR M106,2026-185E,2026-09-11T22:39:01.021248,14.63875281,.00091069,51.9958,122.3540,320.0566,39.9719,0,U,100329,999,393,.79163594E-4,.223E-5,0 GLOBALSTAR M101,2026-185F,2026-09-08T20:54:03.492864,14.63906749,.00088367,51.9961,135.5663,308.9465,51.0704,0,U,100330,999,348,.8328469E-4,.245E-5,0 GLOBALSTAR M105,2026-185G,2026-09-12T01:53:37.338432,14.63938712,.00087993,51.9950,121.7529,320.0095,40.0213,0,U,100331,999,395,.77132591E-4,.212E-5,0 GLOBALSTAR M100,2026-185H,2026-09-12T00:13:59.033856,14.63999211,.00085491,51.9954,122.0436,319.2775,40.7542,0,U,100332,999,394,.79115886E-4,.223E-5,0